Location: West Cummington
(42.4920°N, 72.9680°W)
Time: 18:40:16
(UTC-04:00)

ATLAS 2AS CENTAUR R/B - Visible Passes

Search period start: 30 July 2016 00:00
Search period end: 09 August 2016 00:00
Orbit: 905 x 1307 km, 63.7° (Epoch: 29 July)

Date Brightness Start Highest point End Pass type
(mag) Time Alt. Az. Time Alt. Az. Time Alt. Az.
30 Jul 3.1 01:10:01 10° NW 01:17:52 56° WSW 01:18:14 56° SW visible
30 Jul 5.1 20:42:25 10° NNW 20:47:17 17° N 20:52:08 10° NE visible
30 Jul 4.3 22:34:05 10° NNW 22:41:13 32° NE 22:46:59 14° E visible
31 Jul 2.8 00:25:01 10° NW 00:33:10 82° WSW 00:34:23 67° SSE visible
31 Jul 4.6 02:18:10 10° WNW 02:21:47 17° W 02:21:47 17° W visible
31 Jul 4.7 21:49:16 10° NNW 21:55:45 25° NNE 22:02:04 10° E visible
31 Jul 3.1 23:40:09 10° NNW 23:48:19 71° NE 23:50:36 49° ESE visible
01 Aug 4.1 01:32:09 10° NW 01:38:00 28° W 01:38:00 28° W visible
01 Aug 4.9 21:04:22 10° NNW 21:10:09 20° NNE 21:15:50 10° ENE visible
01 Aug 3.6 22:55:22 10° NNW 23:03:16 51° NE 23:06:52 31° ESE visible
02 Aug 3.5 00:46:45 10° NW 00:54:15 44° WSW 00:54:16 44° WSW visible
02 Aug 4.0 22:10:36 10° NNW 22:18:04 37° NE 22:23:11 18° E visible
03 Aug 2.9 00:01:39 10° NW 00:09:39 66° WSW 00:10:36 61° SSW visible
03 Aug 4.9 01:56:13 10° WNW 01:58:00 12° W 01:58:00 12° W visible
03 Aug 4.4 21:25:49 10° NNW 21:32:42 29° NNE 21:39:20 10° E visible
03 Aug 2.9 23:16:43 10° NW 23:24:53 87° NE 23:26:57 55° SE visible
04 Aug 4.4 01:09:17 10° WNW 01:14:23 21° W 01:14:23 21° W visible
04 Aug 4.7 20:40:58 10° NNW 20:47:10 23° NNE 20:53:13 10° ENE visible
04 Aug 3.3 22:31:53 10° NNW 22:39:57 62° NE 22:43:23 35° ESE visible
05 Aug 3.8 00:23:35 10° NW 00:30:34 34° WSW 00:30:48 34° WSW visible
05 Aug 3.7 21:47:06 10° NNW 21:54:51 45° NE 21:59:50 21° ESE visible
05 Aug 3.3 23:38:20 10° NW 23:46:05 52° WSW 23:47:15 48° SW visible
06 Aug 4.1 21:02:20 10° NNW 21:09:35 33° NE 21:16:20 11° E visible
06 Aug 3.0 22:53:18 10° NW 23:01:25 77° WSW 23:03:46 49° SSE visible
07 Aug 4.7 00:46:47 10° WNW 00:51:04 16° WSW 00:51:11 16° WSW visible
07 Aug 3.0 22:08:25 10° NNW 22:16:35 76° NE 22:20:18 35° SE visible
08 Aug 4.2 00:00:34 10° NW 00:06:50 26° WSW 00:07:44 25° WSW visible
08 Aug 3.4 21:23:37 10° NNW 21:31:36 54° NE 21:36:54 21° ESE visible
08 Aug 3.7 23:15:06 10° NW 23:22:26 40° WSW 23:24:20 35° SW visible
